Weather Roundup
Issued by NWS

Home | Current Version | Previous Version | Graphics & Text | Print | Product List | Glossary On
Versions: 1 2 3 4 5 6 7 8 9 10 11 12 13 14 15 16 17 18 19 20 21 22 23 24 25 26 27 28 29 30 31 32 33 34 35 36 37 38 39 40 41 42 43 44 45 46 47 48 49 50
000
NZUS93 KARX 272210
HRRWXR

CURRENT HOURLY OBSERVATIONS ACROSS
MUCH OF THE UPPER MISSISSIPPI VALLEY
NATIONAL WEATHER SERVICE LA CROSSE WI
400 PM CST FRI FEB 27 2015


...SOUTHEAST MINNESOTA...


CITY           SKY/WX    TMP DP  RH WIND       PRES   REMARKS
ROCHESTER      SUNNY      6  -2  69 SW9       30.50F WCI  -8
ROCHESTER/MAYO FAIR      12  -1  56 W8        30.51F WCI   1
WINONA         SUNNY     14   0  52 SW5       30.57S WCI   6
AUSTIN         SUNNY      9  -2  61 SW7       30.52S WCI  -3
ALBERT LEA     SUNNY     10   0  61 SW7       30.51F WCI   0
DODGE CENTER   SUNNY      7   0  72 SW7       30.50S WCI  -5
PRESTON        SUNNY      6  -4  63 W8        30.52F WCI  -7
OWATONNA       SUNNY      9  -2  61 SW6       30.51F WCI  -1
FARIBAULT      SUNNY     10   0  61 S6        30.51F WCI   1
$$

...ELSEWHERE IN MINNESOTA...


CITY           SKY/WX    TMP DP  RH WIND       PRES   REMARKS
MINNEAPOLIS    SUNNY     14  -1  51 SW8       30.51S WCI   3
INTNL FALLS    SUNNY     17  -7  34 W9        30.31S WCI   6
DULUTH         SUNNY     18  -6  34 W10       30.35S WCI   6
RED WING       SUNNY     16  -2  45 W5        30.53S WCI   9
REDWOOD FALLS  SUNNY     14   3  61 SW6       30.49S WCI   5
MANKATO        SUNNY     12  -4  48 SW7       30.51F WCI   2
FAIRMONT       SUNNY     12   0  57 SW8       30.50S WCI   1
$$

...SOUTHWEST WISCONSIN...


CITY           SKY/WX    TMP DP  RH WIND       PRES   REMARKS
LA CROSSE      SUNNY     16  -3  43 NW7       30.55F WCI   6
PRAIRIE DU CHI SUNNY     12  -5  46 W9        30.59F WCI  -1
BOSCOBEL       SUNNY     15  -4  42 SW10      30.58S WCI   2
LONE ROCK      SUNNY     16  -4  41 W7        30.55F WCI   6
PLATTEVILLE    SUNNY     11  -3  52 SW7       30.55S WCI   0
FORT MC COY    SUNNY     15  -6  38 SW7       30.54S WCI   6
CAMP DOUGLAS   SUNNY     17  -4  39 W9        30.51S WCI   5
VIROQUA        FAIR      13  -4  46 W8        30.49F WCI   1
WIS DELLS      SUNNY     15  -3  43 W6        30.51F WCI   7
$$

...ELSEWHERE IN WISCONSIN...


CITY           SKY/WX    TMP DP  RH WIND       PRES   REMARKS
MILWAUKEE      SUNNY     15  -4  42 SW12      30.55S WCI   2
MADISON        SUNNY     16  -4  41 SW6       30.53S WCI   7
GREEN BAY      SUNNY     18   0  45 SW13      30.49S WCI   5
EAU CLAIRE     SUNNY     13  -2  51 W10       30.51S WCI   0
BLACK RVR FLS  FAIR      16  -6  36 W8        30.52F WCI   6
MEDFORD        SUNNY     10  -4  53 SW9       30.43S WCI  -3
WAUSAU         SUNNY     12  -4  48 SW10      30.44S WCI  -1
WIS RAPIDS     SUNNY     16  -7  35 W12       30.49S WCI   3
MARSHFIELD     SUNNY     13  -4  46 W12       30.46S WCI  -1
RICE LAKE      SUNNY     15  -3  44 SW5       30.48S WCI   7
$$

...NORTHEAST IOWA...


CITY           SKY/WX    TMP DP  RH WIND       PRES   REMARKS
DECORAH        SUNNY      7  -6  56 VRB7      30.54S WCI  -5
MASON CITY     SUNNY      7   0  73 SW6       30.55S WCI  -3
CHARLES CITY   SUNNY      5  -4  66 SW6       30.56F WCI  -6
OELWEIN        SUNNY      5  -4  66 SW6       30.57F WCI  -6
$$

...ELSEWHERE IN IOWA...


CITY           SKY/WX    TMP DP  RH WIND       PRES   REMARKS
DES MOINES     MOSUNNY   13  -3  49 SW3       30.58F
IOWA CITY      SUNNY      8  -2  63 W6        30.64S WCI  -2
FORT DODGE     SUNNY     10   0  61 SW6       30.55F WCI   1
$$

...NORTHERN ILLINOIS...


CITY           SKY/WX    TMP DP  RH WIND       PRES   REMARKS
CHICAGO-OHARE  SUNNY     13  -4  46 W10       30.58F WCI   0
CHICAGO-MIDWAY SUNNY     16  -3  43 W8        30.59F WCI   5
MOLINE         SUNNY     12  -3  51 W3        30.62S
ROCKFORD       SUNNY     12  -5  46 W6        30.60F WCI   3
PEORIA         SUNNY     16  -3  43 W5        30.63F WCI   9
$$

NOTE: "FAIR" INDICATES FEW OR NO CLOUDS BELOW 12,000 FEET WITH NO
SIGNIFICANT WEATHER AND/OR OBSTRUCTIONS TO VISIBILITY. WIND
SPEEDS ARE IN MILES-PER-HOUR.



USA.gov is the U.S. government's official web portal to all federal, state and local government web resources and services.